[[{"header":{"parameterUnit":"m.s-1","parameterCategory":1,"la1":30.2991,"la2":30.254,"lo1":-89.0895,"lo2":-89.0444,"dy":0.0017,"dx":0.0017,"nx":28,"ny":28,"refTime":"2025-07-27T09:00:00:Z","depth":0,"parameterNumber":2,"parameterNumberName":"U-component_of_WINDS"},"data":[0,0,0,0,0,0,0,0,0,0,0,0,0,0,0,0,0,0,0,0,0,0,0,0,0,0,0,0,0,0,0,0,0,0,0,0,0,0,0,0,0,0,0,0,0,0,0,0,0,0,0,0,0,0,0,0,0,0,2.4551,2.4552,0,2.4665,2.4666,2.4668,2.4621,2.4618,2.4615,2.4612,2.4733,2.4739,2.4745,0,0,0,0,0,0,0,0,0,0,0,0,0,2.4298,2.4303,2.4551,2.4552,2.4554,2.4665,2.4666,2.4668,2.4621,2.4618,2.4614,2.4611,2.4732,2.4738,2.4745,0,0,0,0,0,0,0,0,0,0,0,0,0,2.4409,2.4304,2.455,2.4543,2.4544,2.4664,2.4666,2.4668,2.4622,2.4618,2.4613,2.461,2.4729,2.4738,2.4746,2.4882,0,0,2.4773,2.4776,0,0,0,0,0,0,0,0,2.4403,2.4419,2.4543,2.4544,2.4545,2.4624,2.4621,2.474,2.4623,2.4592,2.4612,2.4608,2.4701,2.4711,2.4742,2.4887,2.4892,2.4773,2.4779,2.4782,2.4785,0,0,0,0,0,0,0,2.4395,2.4414,2.4596,2.4545,2.4546,2.4537,2.4548,2.4644,2.4668,2.4595,2.4591,2.4605,2.47,2.4734,2.4744,2.4894,2.4773,2.4781,2.4786,2.479,2.516,2.5165,0,0,0,0,0,0,2.4387,2.4407,2.4592,2.4599,2.4462,2.4544,2.4557,2.4603,2.4667,2.4673,2.4609,2.4603,2.4721,2.4734,2.4749,2.4913,2.4782,2.479,2.4795,2.5156,2.5161,2.5166,0,0,0,0,0,0,2.4382,2.4404,2.4588,2.4503,2.4525,2.4553,2.4605,2.4607,2.464,2.4678,2.4682,2.4638,2.4718,2.4736,2.4849,2.4917,2.4794,2.4802,2.515,2.5157,2.5164,2.5242,0,0,0,0,0,0,2.4375,2.4402,2.4452,2.4504,2.453,2.4685,2.4609,2.4613,2.4655,2.4648,2.4706,2.4712,2.4716,2.4837,2.4858,2.4926,2.4809,2.5144,2.5153,2.5162,2.5234,2.5251,2.5266,0,0,0,0,0,2.4366,2.447,2.4455,2.4477,2.4593,2.4689,2.4704,2.4706,2.4661,2.4712,2.4737,2.471,2.4906,2.4849,2.4872,2.4944,2.514,2.5151,2.5161,2.5227,2.5248,2.5266,0,0,0,0,0,0,2.4425,2.4476,2.446,2.4584,2.4633,2.4681,2.4745,2.4728,2.4791,2.4782,2.4783,2.4797,2.4914,2.494,2.4876,2.5081,2.5017,2.5032,2.5058,2.5079,2.5095,2.5086,2.4816,0,0,0,0,0,2.4453,2.4525,2.4566,2.4672,2.4697,2.4717,2.4759,2.4757,2.4807,2.4828,2.486,2.4912,2.4985,2.5034,2.5103,2.5238,2.5251,2.53,2.5316,2.5329,2.5342,2.5418,2.5441,2.5201,2.5201,2.52,0,0,2.451,2.4547,2.4593,2.4685,2.4722,2.4799,2.4735,2.4818,2.4875,2.4841,2.4949,2.4976,2.5034,2.5159,2.5216,2.5185,2.5412,2.5342,2.5352,2.5359,2.5432,2.5454,2.5474,2.5208,2.5207,2.5205,0,0,2.4655,2.4689,2.4781,2.4821,2.4878,2.4891,2.4914,2.4966,2.4982,2.5091,2.5068,2.5137,2.5263,2.5306,2.5344,2.5509,2.5488,2.5532,2.5616,2.569,2.5709,2.5726,2.5787,2.5808,2.5546,2.5546,2.5546,0,2.4719,2.4832,2.4832,2.4918,2.496,2.4932,2.5028,2.5066,2.5144,2.5175,2.5139,2.5298,2.5335,2.5471,2.5512,2.5543,2.5571,2.5525,2.5706,2.5723,2.5739,2.5797,2.5819,2.5551,2.555,2.555,2.5549,0,2.491,2.4989,2.5057,2.5133,2.5183,2.5273,2.5289,2.534,2.5335,2.5353,2.5467,2.5511,2.559,2.5622,2.5617,2.5759,2.5738,2.5705,2.564,2.5767,2.5821,2.5843,2.5558,2.5556,2.5555,2.5554,0,0,2.5092,2.5168,2.5194,2.5229,2.5292,2.5354,2.5445,2.5522,2.5567,2.5622,2.57,2.5809,2.5779,2.5823,2.5823,2.5888,2.6019,2.5847,2.5848,2.5878,2.6181,2.6206,2.6231,2.6005,2.601,2.6013,2.6176,0,2.5242,2.5399,2.5403,2.5548,2.5623,2.56,2.568,2.5728,2.5749,2.5817,2.584,2.5918,2.5872,2.5898,2.5962,2.5989,2.608,2.5978,2.608,2.6083,2.6066,2.6259,2.6285,2.6437,2.6197,2.6201,2.6203,0,2.5437,2.5499,2.5651,2.5706,2.5738,2.5809,2.5881,2.5946,2.6002,2.6013,2.6064,2.6055,2.6151,2.6084,2.6217,2.6148,2.6191,2.6211,2.6217,2.6226,2.6151,2.6275,2.6485,2.6508,2.6237,2.6234,2.6232,0,2.5556,2.5678,2.5785,2.5816,2.5883,2.5934,2.5964,2.6016,2.6063,2.6128,2.6159,2.6234,2.6275,2.6334,2.6348,2.6297,2.6482,2.6416,2.6495,2.6495,2.6534,2.6532,2.6755,2.6562,2.6561,2.6561,2.656,0,2.5723,2.5818,2.584,2.5906,2.6013,2.6019,2.6125,2.6151,2.6199,2.6272,2.6257,2.6326,2.6339,2.6412,2.6424,2.6534,2.6552,2.6565,2.6567,2.6566,2.6565,2.6594,2.6584,2.6567,2.6565,2.6564,2.6563,0,2.5874,2.5892,2.6009,2.6063,2.6079,2.6155,2.6203,2.6268,2.6288,2.638,2.6403,2.6435,2.652,2.6539,2.6641,2.6649,2.678,2.6771,2.676,2.676,2.6839,2.6831,2.7089,2.7123,2.6907,2.6909,2.691,0,2.5979,2.6051,2.6114,2.6161,2.6194,2.627,2.6319,2.6329,2.638,2.6451,2.6509,2.6592,2.6659,2.6797,2.6831,2.691,2.6903,2.6988,2.6915,2.6913,2.6906,2.6901,2.691,2.7002,2.7004,2.7006,2.7008,0,2.6164,2.617,2.624,2.6314,2.6372,2.6431,2.6487,2.6527,2.6545,2.6605,2.6691,2.6744,2.6848,2.6932,2.7012,2.7045,2.7031,2.7031,2.7054,2.7054,2.7045,2.7052,2.6799,2.7025,2.7023,2.7022,2.7021,2.702,2.6296,2.636,2.6415,2.6494,2.6537,2.6591,2.6655,2.6684,2.6756,2.6841,2.6844,2.6939,2.6997,2.7102,2.7141,2.7217,2.7191,2.7224,2.7232,2.724,2.7248,2.7033,2.7232,2.7231,2.7231,2.7231,2.723,0,2.6481,2.6516,2.6588,2.6668,2.6731,2.6711,2.6774,2.6828,2.6912,2.6967,2.7034,2.7135,2.7218,2.7259,2.7341,2.7395,2.7391,2.7416,2.7412,2.7421,2.7266,2.7238,2.7419,2.7419,2.7419,2.7418,2.7418,2.7418,2.6584,2.6693,2.6706,2.6838,2.6872,2.6965,2.7003,2.7053,2.7097,2.7211,2.7279,2.7306,2.7356,2.7443,2.7518,2.7529,2.756,2.759,2.7597,2.7451,2.7432,2.7413,2.7387,2.7596,2.7596,2.7746,2.7747,2.7748]},{"header":{"parameterUnit":"m.s-1","parameterCategory":1,"la1":30.2991,"la2":30.254,"lo1":-89.0895,"lo2":-89.0444,"dy":0.0017,"dx":0.0017,"nx":28,"ny":28,"refTime":"2025-07-27T09:00:00:Z","depth":0,"parameterNumber":3,"parameterNumberName":"V-component_of_WINDS"},"data":[0,0,0,0,0,0,0,0,0,0,0,0,0,0,0,0,0,0,0,0,0,0,0,0,0,0,0,0,0,0,0,0,0,0,0,0,0,0,0,0,0,0,0,0,0,0,0,0,0,0,0,0,0,0,0,0,0,0,1.0383,1.0385,0,1.0575,1.0577,1.0579,1.0558,1.0555,1.0552,1.0549,1.0752,1.076,1.0768,0,0,0,0,0,0,0,0,0,0,0,0,0,1.0002,1.0009,1.0383,1.0385,1.0388,1.0575,1.0577,1.058,1.0558,1.0555,1.0551,1.0547,1.0749,1.0759,1.0769,0,0,0,0,0,0,0,0,0,0,0,0,0,1.0178,1.0011,1.0383,1.0399,1.0403,1.0574,1.0578,1.0581,1.0559,1.0555,1.055,1.0546,1.0746,1.0758,1.077,1.0939,0,0,1.0808,1.0813,0,0,0,0,0,0,0,0,1.0168,1.0192,1.0395,1.0399,1.0403,1.0538,1.0517,1.0701,1.056,1.05,1.0549,1.0543,1.0685,1.0702,1.0748,1.0949,1.0957,1.0809,1.0817,1.0822,1.0826,0,0,0,0,0,0,0,1.0156,1.0184,1.0459,1.0397,1.0403,1.0399,1.0419,1.0552,1.0616,1.0505,1.0504,1.0527,1.0686,1.0736,1.0753,1.096,1.0809,1.082,1.0828,1.0832,1.1307,1.1312,0,0,0,0,0,0,1.0139,1.0174,1.0453,1.0465,1.0271,1.0409,1.0432,1.0499,1.0615,1.0628,1.053,1.0525,1.0717,1.0738,1.076,1.0964,1.0822,1.0834,1.0841,1.1302,1.1308,1.1313,0,0,0,0,0,0,1.0131,1.0164,1.0445,1.0319,1.0354,1.0421,1.0497,1.0505,1.0555,1.0634,1.0645,1.057,1.0715,1.0742,1.0894,1.0971,1.0839,1.085,1.1295,1.1303,1.1311,1.1375,0,0,0,0,0,0,1.012,1.0161,1.0225,1.032,1.0361,1.0575,1.0502,1.0512,1.0576,1.0571,1.0674,1.0686,1.0713,1.0875,1.0906,1.0986,1.086,1.1289,1.1299,1.1308,1.1366,1.1384,1.1399,0,0,0,0,0,1.0106,1.0238,1.0229,1.0263,1.0443,1.058,1.0603,1.063,1.0582,1.0648,1.0698,1.0683,1.0957,1.0891,1.0926,1.101,1.1284,1.1296,1.1307,1.1359,1.138,1.1399,0,0,0,0,0,0,1.0153,1.0251,1.0242,1.0408,1.0485,1.0576,1.066,1.0652,1.0746,1.0738,1.0768,1.0791,1.0944,1.0992,1.0917,1.1178,1.1114,1.1133,1.1142,1.1163,1.1179,1.1165,1.087,0,0,0,0,0,1.0182,1.0283,1.0364,1.0502,1.0541,1.0594,1.0654,1.0667,1.075,1.0783,1.0844,1.0926,1.1031,1.1099,1.12,1.1372,1.1394,1.1447,1.1463,1.1476,1.1493,1.1586,1.1611,1.1351,1.1351,1.1351,0,0,1.0244,1.031,1.0373,1.0513,1.0575,1.068,1.0622,1.0736,1.0815,1.0802,1.0948,1.0995,1.1088,1.125,1.1325,1.1295,1.1569,1.1491,1.1501,1.1511,1.1601,1.1625,1.1647,1.1359,1.1358,1.1357,0,0,1.0411,1.0471,1.0592,1.0654,1.0747,1.078,1.0809,1.0901,1.0931,1.1077,1.1068,1.1163,1.1342,1.1408,1.1466,1.1654,1.1644,1.1686,1.1772,1.1863,1.1883,1.1902,1.1968,1.1992,1.1702,1.1702,1.1702,0,1.0478,1.0635,1.0656,1.0771,1.0833,1.0822,1.0945,1.1005,1.1127,1.1171,1.1135,1.1358,1.142,1.1597,1.1642,1.1689,1.1723,1.1675,1.1878,1.1897,1.1914,1.1978,1.2003,1.1706,1.1706,1.1706,1.1705,0,1.0712,1.082,1.0907,1.1022,1.1094,1.1213,1.1253,1.1323,1.1328,1.1365,1.1514,1.1587,1.1701,1.1744,1.1753,1.1922,1.19,1.1871,1.1808,1.1943,1.2004,1.2029,1.1713,1.1711,1.171,1.1709,0,0,1.0917,1.1039,1.1071,1.1122,1.1222,1.1307,1.1424,1.1533,1.1593,1.1676,1.1776,1.1926,1.1898,1.1963,1.1979,1.2058,1.2201,1.2019,1.2022,1.205,1.2391,1.2413,1.2442,1.2194,1.2199,1.2202,1.2384,0,1.1094,1.1301,1.1322,1.1507,1.1607,1.1596,1.1699,1.1771,1.1808,1.19,1.1941,1.2047,1.2003,1.2041,1.2119,1.2167,1.227,1.2154,1.2288,1.2293,1.2266,1.2473,1.2498,1.2665,1.2407,1.2412,1.2414,0,1.133,1.1417,1.1611,1.1694,1.1737,1.1829,1.1929,1.2016,1.2098,1.2119,1.2189,1.2193,1.2315,1.2245,1.2413,1.2333,1.2389,1.242,1.2427,1.2442,1.2363,1.2495,1.272,1.2745,1.2452,1.2449,1.2447,0,1.146,1.1626,1.1763,1.1807,1.1908,1.1972,1.2017,1.2094,1.2158,1.2246,1.2287,1.2389,1.2445,1.2524,1.2555,1.2501,1.2721,1.2653,1.2743,1.2742,1.2791,1.2788,1.3029,1.2825,1.2825,1.2824,1.2824,0,1.1657,1.1776,1.1822,1.1907,1.204,1.2063,1.2194,1.2237,1.2304,1.2398,1.2394,1.2482,1.2517,1.261,1.2635,1.277,1.2796,1.2817,1.2822,1.2818,1.2815,1.2856,1.2846,1.2831,1.283,1.2828,1.2827,0,1.1826,1.1862,1.2011,1.2092,1.2115,1.221,1.228,1.2362,1.2396,1.2513,1.2542,1.2597,1.2706,1.2744,1.2877,1.2894,1.305,1.3046,1.3022,1.3024,1.3111,1.3102,1.3388,1.3426,1.3196,1.3198,1.32,0,1.195,1.2041,1.2131,1.2192,1.2239,1.2337,1.2401,1.2426,1.2493,1.259,1.266,1.2768,1.2856,1.3031,1.3083,1.3184,1.3182,1.3275,1.3198,1.319,1.3184,1.3179,1.3188,1.329,1.3293,1.3295,1.3296,0,1.2166,1.2178,1.2269,1.2365,1.244,1.2518,1.2594,1.2644,1.268,1.2755,1.2865,1.2933,1.3067,1.3174,1.3277,1.3324,1.3317,1.3319,1.3345,1.3343,1.3326,1.3336,1.3063,1.3314,1.3312,1.3311,1.331,1.3309,1.2317,1.2397,1.2472,1.2572,1.2631,1.27,1.278,1.2822,1.2914,1.3024,1.3033,1.3152,1.3229,1.3366,1.3418,1.3511,1.3486,1.3523,1.3533,1.3543,1.3549,1.3309,1.353,1.353,1.3529,1.3529,1.3528,0,1.2533,1.258,1.2672,1.2775,1.2854,1.2837,1.2918,1.2986,1.309,1.3161,1.3246,1.3372,1.3475,1.3533,1.3636,1.3699,1.3698,1.3726,1.3722,1.3733,1.3566,1.3533,1.3724,1.3724,1.3724,1.3724,1.3724,1.3724,1.2655,1.2788,1.2809,1.2971,1.3017,1.3131,1.3179,1.3243,1.33,1.344,1.3524,1.356,1.3626,1.3733,1.3827,1.3841,1.3879,1.3909,1.3921,1.3765,1.3745,1.3726,1.3695,1.3917,1.3917,1.4081,1.4082,1.4083]}]]